TSO51 UUWW-ULAM

Flight info

Callsign TSO51
Flight time N/A
Altitude 33000
Route RILPO3B RILPO T753 NULGA NULGA1L
Aircraft B732/M-SDFGHRWY/S

Departure

Time N/A
Airport Vnukovo International Airport (UUWW)

Arrival

Time 2026-04-11 18:00
Airport Naryan Mar Airport (ULAM)
Time Latitude Longitude Altitude Speed Heading
2026-04-11 15:43 56.34028 37.35995 28433 ft 383 kts 23°
2026-04-11 15:43 56.36266 37.37762 28680 ft 385 kts 23°
2026-04-11 15:44 56.38719 37.40227 28928 ft 387 kts 36°
2026-04-11 15:44 56.40838 37.43396 29197 ft 388 kts 41°
2026-04-11 15:44 56.42789 37.46679 29444 ft 389 kts 43°
2026-04-11 15:44 56.44785 37.50205 29693 ft 391 kts 44°
2026-04-11 15:45 56.46701 37.53667 29929 ft 393 kts 45°
2026-04-11 15:45 56.48631 37.57191 30171 ft 394 kts 45°
2026-04-11 15:45 56.50566 37.60744 30394 ft 395 kts 45°
2026-04-11 15:45 56.52490 37.64288 30602 ft 397 kts 45°
2026-04-11 15:46 56.54453 37.67912 30812 ft 398 kts 46°
2026-04-11 15:46 56.56385 37.71487 31016 ft 400 kts 46°
2026-04-11 15:46 56.58350 37.75127 31217 ft 401 kts 46°
2026-04-11 15:46 56.60286 37.78720 31410 ft 402 kts 46°
2026-04-11 15:47 56.62248 37.82361 31600 ft 403 kts 45°
2026-04-11 15:47 56.63598 37.84786 31726 ft 404 kts 44°
2026-04-11 15:47 56.66324 37.89625 31972 ft 406 kts 44°
2026-04-11 15:47 56.68214 37.92978 32138 ft 407 kts 44°
2026-04-11 15:48 56.70325 37.96736 32320 ft 408 kts 44°
2026-04-11 15:48 56.72356 38.00358 32490 ft 409 kts 44°
2026-04-11 15:48 56.74323 38.03872 32652 ft 410 kts 44°
2026-04-11 15:48 56.76365 38.07526 32815 ft 412 kts 44°
2026-04-11 15:49 56.78375 38.11128 32970 ft 413 kts 44°
2026-04-11 15:49 56.82494 38.18529 33009 ft 422 kts 44°
2026-04-11 15:50 56.86753 38.26156 33009 ft 435 kts 42°
2026-04-11 15:50 56.91351 38.33478 33004 ft 439 kts 40°
2026-04-11 15:51 56.95997 38.40773 33002 ft 441 kts 40°
2026-04-11 15:51 57.00635 38.48065 33002 ft 441 kts 40°
2026-04-11 15:52 57.05281 38.55392 32997 ft 438 kts 40°
2026-04-11 15:52 57.09861 38.62638 33005 ft 436 kts 40°
2026-04-11 15:53 57.14517 38.70029 33003 ft 436 kts 41°
2026-04-11 15:53 57.19141 38.77394 33002 ft 437 kts 41°
2026-04-11 15:54 57.23721 38.84716 33002 ft 437 kts 41°
2026-04-11 15:54 57.28307 38.92071 33002 ft 437 kts 41°
2026-04-11 15:55 57.32909 38.99477 33002 ft 437 kts 41°
2026-04-11 15:55 57.37492 39.06879 33002 ft 437 kts 41°
2026-04-11 15:56 57.42073 39.14303 33002 ft 437 kts 41°
2026-04-11 15:56 57.46655 39.21756 33002 ft 438 kts 41°
2026-04-11 15:57 57.51225 39.29194 33002 ft 438 kts 41°
2026-04-11 15:57 57.55843 39.36721 33002 ft 438 kts 41°
2026-04-11 15:58 57.60419 39.44207 33002 ft 438 kts 41°
2026-04-11 15:58 57.65020 39.51761 33002 ft 438 kts 41°
2026-04-11 15:59 57.69622 39.59340 33002 ft 438 kts 41°
2026-04-11 15:59 57.74144 39.66816 33002 ft 439 kts 41°
2026-04-11 16:00 57.78704 39.74381 33002 ft 439 kts 41°
2026-04-11 16:00 57.83323 39.82070 33002 ft 439 kts 41°
2026-04-11 16:01 57.87933 39.89788 33002 ft 439 kts 42°
2026-04-11 16:01 57.92480 39.97471 33002 ft 439 kts 42°
2026-04-11 16:02 57.96978 40.05101 33002 ft 439 kts 42°
2026-04-11 16:02 58.01470 40.12749 33002 ft 440 kts 42°
2026-04-11 16:03 58.06043 40.20561 33002 ft 440 kts 42°
2026-04-11 16:03 58.09842 40.27076 33002 ft 440 kts 42°
2026-04-11 16:04 58.15087 40.36098 33002 ft 440 kts 42°
2026-04-11 16:04 58.19649 40.43912 33002 ft 440 kts 41°
2026-04-11 16:05 58.24191 40.51683 33002 ft 440 kts 41°
2026-04-11 16:05 58.28747 40.59503 33002 ft 440 kts 41°
2026-04-11 16:06 58.35516 40.71175 33002 ft 441 kts 42°
2026-04-11 16:06 58.40029 40.78994 33002 ft 441 kts 42°
2026-04-11 16:07 58.44552 40.86857 33002 ft 441 kts 42°
2026-04-11 16:07 58.49093 40.94780 33002 ft 441 kts 42°
2026-04-11 16:08 58.53621 41.02709 33002 ft 441 kts 42°
2026-04-11 16:08 58.58136 41.10646 33002 ft 441 kts 42°
2026-04-11 16:09 58.62660 41.18627 33002 ft 442 kts 42°
2026-04-11 16:09 58.67188 41.26644 33002 ft 442 kts 42°
2026-04-11 16:10 58.71702 41.34666 33002 ft 442 kts 42°
2026-04-11 16:10 58.76242 41.42657 32995 ft 442 kts 38°
2026-04-11 16:11 58.81137 41.49898 33001 ft 442 kts 36°
2026-04-11 16:11 58.86067 41.56958 33002 ft 442 kts 36°
2026-04-11 16:12 58.91051 41.64079 33002 ft 442 kts 36°
2026-04-11 16:12 58.96014 41.71191 33002 ft 442 kts 37°
2026-04-11 16:13 59.00971 41.78319 33002 ft 442 kts 37°
2026-04-11 16:13 59.05924 41.85467 33002 ft 443 kts 37°
2026-04-11 16:14 59.10906 41.92684 33002 ft 443 kts 37°
2026-04-11 16:14 59.15876 41.99911 33002 ft 443 kts 37°
2026-04-11 16:15 59.20785 42.07075 33002 ft 443 kts 37°
2026-04-11 16:15 59.25726 42.14312 33002 ft 443 kts 37°
2026-04-11 16:16 59.30670 42.21581 33002 ft 443 kts 37°
2026-04-11 16:16 59.35608 42.28869 33002 ft 443 kts 37°
2026-04-11 16:17 59.40762 42.35447 33006 ft 443 kts 30°
2026-04-11 16:17 59.45921 42.41302 33002 ft 443 kts 29°
2026-04-11 16:18 59.51177 42.47185 33002 ft 444 kts 29°
2026-04-11 16:18 59.56522 42.53175 33002 ft 444 kts 29°
2026-04-11 16:19 59.61879 42.59197 33002 ft 444 kts 29°
2026-04-11 16:19 59.66352 42.64243 33002 ft 444 kts 29°
2026-04-11 16:20 59.72591 42.71307 33003 ft 445 kts 30°
2026-04-11 16:20 59.78030 42.77491 33006 ft 454 kts 30°
2026-04-11 16:21 59.83541 42.83780 33006 ft 459 kts 30°
2026-04-11 16:21 59.89075 42.90120 33005 ft 464 kts 30°
2026-04-11 16:22 59.94688 42.96576 33005 ft 468 kts 30°
2026-04-11 16:22 60.00344 43.03108 33005 ft 472 kts 30°
2026-04-11 16:23 60.06016 43.09683 33004 ft 475 kts 30°
2026-04-11 16:23 60.11763 43.16373 33001 ft 475 kts 30°
2026-04-11 16:24 60.17435 43.23002 32998 ft 469 kts 30°
2026-04-11 16:24 60.23075 43.29620 33001 ft 467 kts 30°
2026-04-11 16:25 60.28656 43.36195 33001 ft 465 kts 30°
2026-04-11 16:25 60.34217 43.42773 33001 ft 463 kts 30°
2026-04-11 16:26 60.39796 43.49400 33001 ft 462 kts 30°
2026-04-11 16:26 60.45319 43.55985 33001 ft 461 kts 30°
2026-04-11 16:27 60.50813 43.62563 33001 ft 460 kts 30°
2026-04-11 16:27 60.56336 43.69201 33001 ft 459 kts 31°
2026-04-11 16:28 60.61791 43.75783 33002 ft 458 kts 31°
2026-04-11 16:28 60.67293 43.82384 33002 ft 457 kts 30°
2026-04-11 16:29 60.72808 43.88845 33002 ft 457 kts 30°
2026-04-11 16:29 60.78349 43.95353 33002 ft 456 kts 30°
2026-04-11 16:30 60.83696 44.01655 33002 ft 455 kts 30°
2026-04-11 16:30 60.89111 44.08064 33002 ft 455 kts 30°
2026-04-11 16:31 60.94584 44.14566 33002 ft 455 kts 30°
2026-04-11 16:31 61.00064 44.21090 33002 ft 454 kts 30°
2026-04-11 16:32 61.05506 44.27596 33002 ft 454 kts 30°
2026-04-11 16:32 61.10993 44.34181 33002 ft 454 kts 30°
2026-04-11 16:33 61.16476 44.40788 33002 ft 454 kts 30°
2026-04-11 16:33 61.21912 44.47366 33002 ft 453 kts 30°
2026-04-11 16:34 61.27336 44.53956 33002 ft 453 kts 30°
2026-04-11 16:34 61.31875 44.59491 33002 ft 453 kts 30°
2026-04-11 16:35 61.38242 44.67287 33002 ft 453 kts 31°
2026-04-11 16:35 61.43692 44.73989 33002 ft 453 kts 31°
2026-04-11 16:36 61.49117 44.80688 33002 ft 453 kts 31°
2026-04-11 16:36 61.54552 44.87427 33002 ft 453 kts 31°
2026-04-11 16:37 61.59933 44.94127 33002 ft 452 kts 31°
2026-04-11 16:37 61.65345 45.00893 33002 ft 452 kts 31°
2026-04-11 16:38 61.70745 45.07615 33002 ft 452 kts 30°
2026-04-11 16:38 61.76171 45.14177 33002 ft 452 kts 30°
2026-04-11 16:39 61.81680 45.20850 33002 ft 452 kts 30°
2026-04-11 16:39 61.87141 45.27491 33002 ft 452 kts 30°
2026-04-11 16:40 61.92646 45.34213 33002 ft 452 kts 30°
2026-04-11 16:40 61.98212 45.41038 33002 ft 452 kts 30°
2026-04-11 16:41 62.02783 45.46666 33002 ft 452 kts 30°
2026-04-11 16:41 62.09132 45.54514 33002 ft 452 kts 30°
2026-04-11 16:42 62.14187 45.60790 33002 ft 452 kts 30°
2026-04-11 16:43 62.22354 45.70983 33002 ft 452 kts 30°
2026-04-11 16:43 62.27770 45.77777 33002 ft 453 kts 30°
2026-04-11 16:44 62.33225 45.84651 33002 ft 453 kts 30°
2026-04-11 16:44 62.38639 45.91501 33002 ft 453 kts 30°
2026-04-11 16:45 62.43160 45.97243 33002 ft 453 kts 30°
2026-04-11 16:45 62.49511 46.05345 33002 ft 453 kts 30°
2026-04-11 16:46 62.54917 46.12274 33002 ft 453 kts 30°
2026-04-11 16:46 62.60311 46.19265 33002 ft 453 kts 31°
2026-04-11 16:47 62.65716 46.26368 33002 ft 453 kts 31°
2026-04-11 16:47 62.71120 46.33505 33002 ft 453 kts 31°
2026-04-11 16:48 62.76512 46.40657 32997 ft 451 kts 31°
2026-04-11 16:48 62.80984 46.46612 33002 ft 452 kts 31°
2026-04-11 16:49 62.87230 46.54965 33002 ft 452 kts 31°
2026-04-11 16:49 62.92597 46.62178 33002 ft 452 kts 31°
2026-04-11 16:50 62.97974 46.69435 33002 ft 452 kts 32°
2026-04-11 16:50 63.03317 46.76677 33002 ft 452 kts 32°
2026-04-11 16:51 63.08675 46.83971 33002 ft 453 kts 32°
2026-04-11 16:51 63.14043 46.91299 33002 ft 453 kts 32°
2026-04-11 16:52 63.19405 46.98645 33002 ft 453 kts 32°
2026-04-11 16:52 63.24771 47.06031 33002 ft 453 kts 32°
2026-04-11 16:53 63.30134 47.13446 33002 ft 453 kts 32°
2026-04-11 16:53 63.35468 47.20853 33002 ft 453 kts 32°
2026-04-11 16:54 63.40840 47.28345 33002 ft 453 kts 32°
2026-04-11 16:54 63.46156 47.35794 33002 ft 454 kts 32°
2026-04-11 16:55 63.51496 47.43309 33002 ft 454 kts 32°
2026-04-11 16:55 63.56863 47.50895 33002 ft 454 kts 32°
2026-04-11 16:56 63.64839 47.62235 33002 ft 454 kts 32°
2026-04-11 16:56 63.70217 47.69923 33002 ft 454 kts 32°
2026-04-11 16:57 63.75521 47.77519 33002 ft 454 kts 32°
2026-04-11 16:57 63.80870 47.85211 33002 ft 454 kts 32°
2026-04-11 16:58 63.85294 47.91599 33002 ft 454 kts 32°
2026-04-11 16:58 63.91511 48.00619 33002 ft 455 kts 32°
2026-04-11 16:59 63.96803 48.08335 33002 ft 455 kts 32°
2026-04-11 16:59 64.01224 48.14809 33002 ft 455 kts 32°
2026-04-11 17:00 64.07437 48.23946 33002 ft 455 kts 32°
2026-04-11 17:00 64.12730 48.31770 33002 ft 455 kts 32°
2026-04-11 17:01 64.18037 48.39651 33002 ft 455 kts 32°
2026-04-11 17:01 64.23379 48.47621 33002 ft 455 kts 32°
2026-04-11 17:02 64.28693 48.55586 33002 ft 455 kts 32°
2026-04-11 17:02 64.33968 48.63530 33002 ft 455 kts 32°
2026-04-11 17:03 64.39291 48.71584 33002 ft 455 kts 33°
2026-04-11 17:03 64.44602 48.79657 33002 ft 456 kts 33°
2026-04-11 17:04 64.49886 48.87700 33002 ft 456 kts 33°
2026-04-11 17:04 64.55157 48.95756 33002 ft 456 kts 33°
2026-04-11 17:05 64.60438 49.03867 33002 ft 456 kts 33°
2026-04-11 17:05 64.65718 49.12012 33002 ft 456 kts 33°
2026-04-11 17:06 64.70139 49.18862 33002 ft 456 kts 33°
2026-04-11 17:06 64.76273 49.28413 33002 ft 456 kts 33°
2026-04-11 17:07 64.80658 49.35273 33002 ft 456 kts 33°
2026-04-11 17:07 64.86808 49.44928 33002 ft 456 kts 33°
2026-04-11 17:08 64.92067 49.53229 33002 ft 456 kts 33°
2026-04-11 17:08 64.97358 49.61621 33002 ft 456 kts 33°
2026-04-11 17:09 65.02608 49.69989 33002 ft 457 kts 34°
2026-04-11 17:09 65.07893 49.78453 33002 ft 457 kts 34°
2026-04-11 17:13 65.45058 50.31651 33002 ft 457 kts 25°
2026-04-11 17:13 65.51721 50.39430 33002 ft 457 kts 25°
2026-04-11 17:14 65.57139 50.45786 33002 ft 457 kts 25°
2026-04-11 17:14 65.61922 50.51421 33002 ft 457 kts 25°
2026-04-11 17:16 65.77132 50.69499 33002 ft 457 kts 26°
2026-04-11 17:16 65.82840 50.76334 33002 ft 458 kts 26°
2026-04-11 17:17 65.88554 50.83194 33002 ft 458 kts 26°
2026-04-11 17:17 65.94080 50.89860 33002 ft 458 kts 26°
2026-04-11 17:18 65.99789 50.96782 33002 ft 458 kts 26°
2026-04-11 17:18 66.05489 51.03727 33002 ft 458 kts 26°
2026-04-11 17:19 66.11117 51.10620 32951 ft 434 kts 26°
2026-04-11 17:19 66.13763 51.13872 32919 ft 420 kts 26°
2026-04-11 17:19 66.16316 51.17016 32783 ft 409 kts 26°
2026-04-11 17:19 66.18772 51.20049 32382 ft 406 kts 26°
2026-04-11 17:20 66.21019 51.22829 31945 ft 406 kts 26°
2026-04-11 17:20 66.23516 51.25925 31498 ft 403 kts 26°
2026-04-11 17:20 66.26016 51.29032 31080 ft 400 kts 26°
2026-04-11 17:20 66.28480 51.32100 30669 ft 397 kts 26°
2026-04-11 17:21 66.30954 51.35189 30248 ft 395 kts 26°
2026-04-11 17:21 66.33389 51.38235 29832 ft 392 kts 26°
2026-04-11 17:21 66.35833 51.41298 29415 ft 390 kts 26°
2026-04-11 17:21 66.38246 51.44330 29004 ft 387 kts 26°
2026-04-11 17:22 66.40028 51.46574 28700 ft 385 kts 26°
2026-04-11 17:22 66.42407 51.49574 28293 ft 383 kts 26°
2026-04-11 17:22 66.44797 51.52594 27885 ft 380 kts 26°
2026-04-11 17:22 66.47137 51.55558 27484 ft 378 kts 26°
2026-04-11 17:23 66.49468 51.58515 27086 ft 375 kts 26°
2026-04-11 17:23 66.51780 51.61456 26689 ft 373 kts 26°
2026-04-11 17:23 66.54101 51.64414 26292 ft 370 kts 26°
2026-04-11 17:23 66.56416 51.67371 25894 ft 368 kts 27°
2026-04-11 17:24 66.58694 51.70287 25504 ft 366 kts 27°
2026-04-11 17:24 66.60941 51.73169 25118 ft 364 kts 27°
2026-04-11 17:24 66.63243 51.76128 24722 ft 361 kts 27°
2026-04-11 17:24 66.65468 51.78993 24340 ft 359 kts 27°
2026-04-11 17:25 66.67683 51.81851 23959 ft 357 kts 27°
2026-04-11 17:25 66.69877 51.84688 23581 ft 355 kts 27°
2026-04-11 17:25 66.72068 51.87527 23204 ft 353 kts 27°
2026-04-11 17:25 66.74246 51.90354 22830 ft 351 kts 27°
2026-04-11 17:26 66.76414 51.93175 22456 ft 349 kts 27°
2026-04-11 17:26 66.78559 51.95970 22087 ft 347 kts 27°
2026-04-11 17:26 66.80691 51.98741 21720 ft 345 kts 27°
2026-04-11 17:26 66.82804 52.01492 21356 ft 343 kts 27°
2026-04-11 17:27 66.84925 52.04257 20991 ft 341 kts 27°
2026-04-11 17:27 66.87019 52.06992 20630 ft 339 kts 27°
2026-04-11 17:27 66.89127 52.09750 20267 ft 337 kts 27°
2026-04-11 17:27 66.91216 52.12490 19907 ft 335 kts 27°
2026-04-11 17:28 66.93258 52.15172 19556 ft 333 kts 27°
2026-04-11 17:28 66.95314 52.17879 19202 ft 331 kts 27°
2026-04-11 17:28 66.97361 52.20578 18849 ft 330 kts 27°
2026-04-11 17:28 66.99375 52.23239 18502 ft 328 kts 27°
2026-04-11 17:29 67.01402 52.25922 18153 ft 326 kts 27°
2026-04-11 17:29 67.03415 52.28592 17806 ft 324 kts 27°
2026-04-11 17:29 67.05417 52.31252 17433 ft 324 kts 27°
2026-04-11 17:29 67.07420 52.33920 16839 ft 324 kts 27°
2026-04-11 17:30 67.09387 52.36544 16219 ft 319 kts 27°
2026-04-11 17:30 67.11365 52.39185 15589 ft 315 kts 27°
2026-04-11 17:30 67.13274 52.41739 15466 ft 295 kts 27°
2026-04-11 17:30 67.15019 52.44078 15355 ft 276 kts 27°
2026-04-11 17:31 67.16704 52.46342 14930 ft 272 kts 27°
2026-04-11 17:31 67.18387 52.48606 14384 ft 271 kts 27°
2026-04-11 17:31 67.20048 52.50844 13869 ft 270 kts 27°
2026-04-11 17:31 67.21700 52.53073 13379 ft 268 kts 27°
2026-04-11 17:32 67.23294 52.55229 12907 ft 266 kts 27°
2026-04-11 17:32 67.24922 52.57432 12423 ft 264 kts 27°
2026-04-11 17:32 67.26543 52.59628 11941 ft 262 kts 27°
2026-04-11 17:32 67.28153 52.61814 11461 ft 260 kts 27°
2026-04-11 17:33 67.29751 52.63987 10986 ft 258 kts 27°
2026-04-11 17:33 67.31352 52.66169 10510 ft 256 kts 28°
2026-04-11 17:33 67.32908 52.68290 10048 ft 255 kts 28°
2026-04-11 17:33 67.34485 52.70444 9580 ft 253 kts 28°
2026-04-11 17:34 67.36053 52.72589 9115 ft 251 kts 28°
2026-04-11 17:34 67.37575 52.74674 8664 ft 249 kts 28°
2026-04-11 17:34 67.39107 52.76776 8210 ft 248 kts 28°
2026-04-11 17:34 67.40627 52.78864 7760 ft 246 kts 28°
2026-04-11 17:35 67.42126 52.80926 7317 ft 245 kts 28°
2026-04-11 17:35 67.43632 52.83002 6872 ft 243 kts 28°
2026-04-11 17:35 67.45116 52.85050 6434 ft 241 kts 28°
2026-04-11 17:35 67.46574 52.87064 6004 ft 240 kts 28°
2026-04-11 17:36 67.48052 52.89110 5569 ft 238 kts 28°
2026-04-11 17:36 67.49503 52.91121 5147 ft 237 kts 28°
2026-04-11 17:36 67.50954 52.93135 4719 ft 235 kts 28°
2026-04-11 17:36 67.52393 52.95135 4306 ft 236 kts 28°
2026-04-11 17:37 67.53857 52.97172 4085 ft 235 kts 28°
2026-04-11 17:37 67.55283 52.99157 3909 ft 232 kts 28°
2026-04-11 17:37 67.56672 53.01096 3697 ft 232 kts 28°
2026-04-11 17:37 67.58107 53.03101 3470 ft 231 kts 28°
2026-04-11 17:38 67.59509 53.05063 3231 ft 231 kts 28°
2026-04-11 17:38 67.60942 53.07028 3014 ft 228 kts 21°
2026-04-11 17:38 67.62456 53.07398 2999 ft 214 kts 346°
2026-04-11 17:38 67.63716 53.05466 3032 ft 219 kts 310°
2026-04-11 17:39 67.64383 53.01754 3066 ft 226 kts 277°
2026-04-11 17:39 67.64200 52.97747 2829 ft 225 kts 245°
2026-04-11 17:39 67.63209 52.94618 2463 ft 225 kts 212°
2026-04-11 17:39 67.61739 52.93417 1974 ft 224 kts 179°
2026-04-11 17:40 67.60269 52.94531 1467 ft 224 kts 145°
2026-04-11 17:40 67.59238 52.97479 1311 ft 207 kts 125°
2026-04-11 17:40 67.58425 53.00532 1294 ft 202 kts 124°
2026-04-11 17:40 67.57632 53.03524 1294 ft 198 kts 124°
2026-04-11 17:41 67.56848 53.06480 1298 ft 196 kts 124°
2026-04-11 17:41 67.56072 53.09405 1298 ft 194 kts 124°
2026-04-11 17:41 67.55304 53.12295 1298 ft 192 kts 124°
2026-04-11 17:41 67.54768 53.15385 1291 ft 189 kts 93°
2026-04-11 17:42 67.55062 53.18641 1326 ft 184 kts 60°
2026-04-11 17:42 67.55736 53.21532 1307 ft 184 kts 58°
2026-04-11 17:42 67.56419 53.24392 1301 ft 184 kts 58°
2026-04-11 17:43 67.57771 53.30063 1299 ft 182 kts 58°
2026-04-11 17:43 67.58448 53.32904 1301 ft 180 kts 58°
2026-04-11 17:43 67.59115 53.35703 1299 ft 180 kts 58°
2026-04-11 17:43 67.59795 53.38425 1293 ft 179 kts 44°
2026-04-11 17:44 67.60875 53.39832 1318 ft 174 kts
2026-04-11 17:44 67.62082 53.39993 1313 ft 175 kts
2026-04-11 17:44 67.63334 53.40086 1313 ft 179 kts
2026-04-11 17:44 67.64595 53.40184 1311 ft 182 kts
2026-04-11 17:45 67.65833 53.40134 1301 ft 185 kts 344°
2026-04-11 17:45 67.66890 53.38308 1328 ft 184 kts 303°
2026-04-11 17:45 67.67234 53.35101 1329 ft 185 kts 262°
2026-04-11 17:45 67.66716 53.32038 1339 ft 186 kts 231°
2026-04-11 17:46 67.65896 53.29359 1314 ft 191 kts 236°
2026-04-11 17:46 67.65237 53.26271 1315 ft 193 kts 234°
2026-04-11 17:46 67.64352 53.23614 1323 ft 194 kts 239°
2026-04-11 17:46 67.64066 53.20170 1321 ft 194 kts 280°
2026-04-11 17:47 67.64562 53.16895 1331 ft 195 kts 288°
2026-04-11 17:47 67.64562 53.13342 1324 ft 196 kts 248°
2026-04-11 17:47 67.63752 53.10531 1336 ft 196 kts 222°
2026-04-11 17:47 67.63039 53.07477 1313 ft 198 kts 260°
2026-04-11 17:48 67.63855 53.01889 1547 ft 225 kts 323°
2026-04-11 17:48 67.65904 53.00264 2046 ft 251 kts
2026-04-11 17:48 67.67593 53.01577 2018 ft 258 kts 32°
2026-04-11 17:49 67.69317 53.09487 1997 ft 249 kts 91°
2026-04-11 17:49 67.67730 53.16467 1998 ft 221 kts 156°
2026-04-11 17:50 67.66270 53.17027 2000 ft 209 kts 191°
2026-04-11 17:50 67.65031 53.15306 2003 ft 199 kts 229°
2026-04-11 17:50 67.64490 53.12102 2004 ft 189 kts 269°
2026-04-11 17:50 67.64841 53.08939 2005 ft 179 kts 310°
2026-04-11 17:51 67.65868 53.07299 2005 ft 170 kts 355°
2026-04-11 17:51 67.67477 53.10580 2073 ft 168 kts 89°
2026-04-11 17:51 67.67117 53.13711 2133 ft 193 kts 128°
2026-04-11 17:52 67.66008 53.15809 2183 ft 205 kts 150°
2026-04-11 17:52 67.65026 53.18550 2284 ft 214 kts 114°
2026-04-11 17:52 67.64812 53.22510 2265 ft 221 kts 79°
2026-04-11 17:52 67.65453 53.26202 2272 ft 226 kts 54°
2026-04-11 17:53 67.66403 53.29540 2250 ft 232 kts 52°
2026-04-11 17:53 67.67411 53.32934 2246 ft 236 kts 51°
2026-04-11 17:53 67.68439 53.36375 2243 ft 240 kts 51°
2026-04-11 17:53 67.69486 53.39873 2242 ft 242 kts 51°
2026-04-11 17:54 67.70530 53.43361 2227 ft 234 kts 51°
2026-04-11 17:54 67.71187 53.45562 2201 ft 224 kts 51°
2026-04-11 17:54 67.72401 53.49630 2115 ft 198 kts 51°
2026-04-11 17:54 67.73197 53.52414 2000 ft 185 kts 63°
2026-04-11 17:55 67.73387 53.55697 1668 ft 183 kts 104°
2026-04-11 17:55 67.72696 53.58363 1521 ft 176 kts 149°
2026-04-11 17:55 67.71531 53.58993 1528 ft 173 kts 193°
2026-04-11 17:55 67.70535 53.57407 1534 ft 171 kts 229°
2026-04-11 17:56 67.69778 53.54936 1512 ft 173 kts 231°
2026-04-11 17:56 67.69028 53.52428 1549 ft 176 kts 231°
2026-04-11 17:56 67.68269 53.49898 1549 ft 173 kts 230°
2026-04-11 17:56 67.67752 53.48307 1540 ft 171 kts 230°
2026-04-11 17:57 67.66766 53.45032 1503 ft 169 kts 233°
2026-04-11 17:57 67.66354 53.43262 1458 ft 169 kts 243°
2026-04-11 17:57 67.65762 53.39437 1472 ft 161 kts 251°
2026-04-11 17:57 67.65440 53.36675 1544 ft 161 kts 255°
2026-04-11 17:58 67.65224 53.33831 1512 ft 152 kts 262°
2026-04-11 17:58 67.65092 53.31138 1460 ft 147 kts 262°
2026-04-11 17:58 67.64954 53.28539 1362 ft 139 kts 262°
2026-04-11 17:58 67.64809 53.26039 1158 ft 138 kts 261°
2026-04-11 17:59 67.64671 53.23505 916 ft 140 kts 262°
2026-04-11 17:59 67.64539 53.21052 571 ft 135 kts 262°
2026-04-11 17:59 67.64407 53.18608 298 ft 133 kts 261°
2026-04-11 17:59 67.64266 53.16240 156 ft 132 kts 261°
2026-04-11 18:00 67.64172 53.14648 86 ft 132 kts 261°
2026-04-11 18:00 67.64008 53.11706 51 ft 100 kts 262°
2026-04-11 18:00 67.63929 53.10270 51 ft 68 kts 262°
2026-04-11 18:00 67.63891 53.09578 51 ft 23 kts 262°
2026-04-11 18:01 67.63875 53.09296 51 ft 23 kts 257°
2026-04-11 18:01 67.63708 53.09038 51 ft 21 kts 199°
2026-04-11 18:01 67.63593 53.08894 51 ft 6 kts 223°
2026-04-11 18:01 67.63571 53.08809 51 ft 5 kts 234°
2026-04-11 18:02 67.63543 53.08751 51 ft 4 kts 235°
2026-04-11 18:02 67.63547 53.08672 51 ft 4 kts 301°
2026-04-11 18:02 67.63554 53.08653 51 ft 2 kts 319°
2026-04-11 18:02 67.63573 53.08653 51 ft 5 kts 26°
2026-04-11 18:03 67.63582 53.08721 51 ft 0 kts 116°